Regional Weather Roundup
Issued by NWS Green Bay, WI

Home | Current Version | Previous Version | Text Only | Print | Product List | Glossary Off
Versions: 1 2 3 4 5 6 7 8 9 10 11 12 13 14 15 16 17 18 19 20 21 22 23 24 25 26 27 28 29 30 31 32 33 34 35 36 37 38 39 40 41 42 43 44 45 46 47 48 49 50

000
ASUS43 KGRB 051000
RWRGRB

NORTH-CENTRAL AND NORTHEAST WISCONSIN REGIONAL WEATHER ROUNDUP
NATIONAL WEATHER SERVICE GREEN BAY WI
500 AM CDT SUN JUL 05 2015

WIZ005-009-010>012-018-019-051100-
NORTH CENTRAL WISCONSIN

CITY           SKY/WX    TMP DP  RH WIND       PRES   REMARKS
IRONWOOD       CLEAR     66  64  94 SW7       29.95S
MANITOWISH WTR NOT AVBL
ARBOR VITAE    NOT AVBL
EAGLE RIVER    NOT AVBL
LAND O LAKES   NOT AVBL
RHINELANDER    CLEAR     64  62  93 SW7       30.04R FOG
PHILLIPS       NOT AVBL
ANTIGO         NOT AVBL
TOMAHAWK       NOT AVBL
MERRILL        NOT AVBL
$$

WIZ013-073-051100-
NORTHEAST WISCONSIN

CITY           SKY/WX    TMP DP  RH WIND       PRES   REMARKS
IRON MOUNTAIN  MOCLDY    59  57  93 CALM      30.00R FOG
MARINETTE      PTCLDY    63  57  82 SW3       30.00R
$$

WIZ017-030-035>037-045-051100-
CENTRAL WISCONSIN

CITY           SKY/WX    TMP DP  RH WIND       PRES   REMARKS
MEDFORD        NOT AVBL
WAUSAU         CLEAR     64  63  96 SW3       30.01R FOG
MOSINEE        NOT AVBL
MARSHFIELD     CLEAR     62  58  86 SW3       30.02R FOG
WISC RAPIDS    MOCLDY    63  59  87 S5        30.03R
STEVENS POINT  NOT AVBL
WAUPACA        NOT AVBL
SHAWANO        NOT AVBL
CLINTONVILLE   NOT AVBL
$$

WIZ038-039-048-051-051100-
FOX VALLEY

CITY           SKY/WX    TMP DP  RH WIND       PRES   REMARKS
NWS GREEN BAY  CLEAR     62  60  93 S3        30.02R FOG
APPLETON       NOT AVBL
OSHKOSH        CLEAR     62  59  90 S3        30.03R FOG
FOND DU LAC    CLEAR     63  61  93 S5        30.04R
$$

WIZ022-050-052-051100-
EAST CENTRAL WISCONSIN

CITY           SKY/WX    TMP DP  RH WIND       PRES   REMARKS
STURGEON BAY   CLEAR     59  55  88 S7        30.04S
MANITOWOC      CLEAR     57  57 100 MISG      30.04R FOG
SHEBOYGAN      CLEAR     60  58  92 CALM      30.04S
$$

LMZ563-521-522-541>543-051100-
LAKESHORE

STATION/POSITION TIME  TEMP    WIND        PRES    VSBY  WAVE
                       AIR SEA DIR/SP/G                  HT/PER
                 (UTC) (F)     (DEG/KT/KT) (MB)    (MI)  (FT/S)
SHEBOYGAN LKSHOR 0900   63     170/  6/  6 1017.2F
KEWAUNEE LKSHORE 0900   61      CALM  /  2 1016.0F
ALGOMA MARINA    0911          200/  5/  7   N/A
NORTHPORT PIER   0900   62     160/  7/ 11 1016.3F
N MID LAKE BUOY  0850   51 46  170/  8/  8 1017.0F         0
S GREEN BAY BUOY 0900   68 69  180/ 10/ 12 1017.4F
SISTER BAY LKSHO 0914   60     160/ 10/ 14   N/A
CHAMBERS ISLAND  0900   65     150/  4/  8 1015.9F
MENOMINEE LKSHOR 0900   65     160/ 12/ 14 1016.3F
$$



USA.gov is the U.S. government's official web portal to all federal, state and local government web resources and services.